Location: Kampung Segan
(3.1399°N, 113.1002°E)
Time: 12:49:32
(UTC+00:00)

MOS 1-B Rocket - Pass Details

Date: 16 October 2025
Orbit: 891 x 1603 km, 99.0° (Epoch: 16 November)

Event Time Altitude Azimuth Distance (km) Brightness Sun altitude
Rises 18:34:30 0° 51° (NE) 4,691 7.9 -54.4°
Reaches altitude 10° 18:39:06 10° 73° (ENE) 3,779 7.4 -53.2°
Maximum altitude 18:43:44 15° 104° (ESE) 3,419 7.2 -52.1°
Drops below altitude 10° 18:48:22 10° 135° (SE) 3,813 7.4 -51.0°
Sets 18:52:58 0° 156° (SSE) 4,761 7.9 -49.8°
